[Iaude] MPEC R154: 2016 RA34 [a=0.94,e=0.31,i=3.6,H=24.6]

mpec at mpc.eps.harvard.edu mpec at mpc.eps.harvard.edu
Tue Sep 13 22:37:16 EDT 2016


M.P.E.C. 2016-R154                               Issued 2016 Sept. 14, 02:34 UT
 
     The Minor Planet Electronic Circulars contain information on unusual
         minor planets and routine data on comets.  They are published
    on behalf of Division F of the International Astronomical Union by the
          Minor Planet Center, Smithsonian Astrophysical Observatory,
                          Cambridge, MA 02138, U.S.A.

             Prepared using the Tamkin Foundation Computer Network

                              MPC at CFA.HARVARD.EDU
            URL http://www.minorplanetcenter.net/    ISSN 1523-6714


                                   2016 RA34
 
Observations:
     K16R34A* C2016 09 11.29389 23 20 01.23 -17 03 42.3          18.9 VqER154G96
     K16R34A  C2016 09 11.29969 23 19 57.41 -17 03 22.1          19.2 VqER154G96
     K16R34A  C2016 09 11.30822 23 19 51.81 -17 02 51.7          18.9 VqER154G96
     K16R34A  C2016 09 11.34945 23 19 25.00 -17 00 23.9          19.3 VqER154G96
     K16R34A  C2016 09 11.34986 23 19 24.69 -17 00 22.4          19.2 VqER154G96
     K16R34A  C2016 09 11.35303 23 19 22.65 -17 00 11.1          19.3 VqER154G96
     K16R34A  C2016 09 11.35396 23 19 22.05 -17 00 07.7          19.6 VqER154G96
     K16R34A  C2016 09 11.36151 23 19 17.15 -16 59 40.8          19.6 VqER154G96
     K16R34A  C2016 09 11.36175 23 19 17.01 -16 59 39.5          19.4 VqER154G96
     K16R34A  C2016 09 11.36199 23 19 16.89 -16 59 38.9          19.3 VqER154G96
     K16R34A  C2016 09 11.36223 23 19 16.72 -16 59 38.3          19.4 VqER154G96
     K16R34A KC2016 09 11.36793 23 19 13.12 -16 59 16.8          19.2 RoER154291
     K16R34A KC2016 09 11.36893 23 19 12.50 -16 59 13.1          19.1 RoER154291
     K16R34A KC2016 09 11.36992 23 19 11.83 -16 59 09.4                oER154291
     K16R34A  C2016 09 11.96627 23 13 39.53 -16 25 47.9                qER154246
     K16R34A  C2016 09 11.96644 23 13 39.40 -16 25 46.8                qER154246
     K16R34A  C2016 09 11.96681 23 13 39.14 -16 25 44.6                qER154246
     K16R34A  C2016 09 11.99109 23 13 25.24 -16 24 24.6                qER154246
     K16R34A  C2016 09 11.99124 23 13 25.17 -16 24 24.4                qER154246
     K16R34A  C2016 09 11.99138 23 13 24.80 -16 24 22.0                qER154246
     K16R34A KC2016 09 12.20605023 11 35.81 -16 12 39.0          19.2 VuER154H21
     K16R34A KC2016 09 12.21021523 11 33.50 -16 12 25.8          19.4 VuER154H21
     K16R34A KC2016 09 12.21430323 11 31.18 -16 12 12.9          19.5 VuER154H21
     K16R34A  C2016 09 12.25091 23 11 13.91 -16 10 04.5          19.3 VqER154G96
     K16R34A  C2016 09 12.25221 23 11 13.19 -16 10 00.2          19.6 VqER154G96
     K16R34A  C2016 09 12.25384 23 11 12.27 -16 09 55.3          19.5 VqER154G96
     K16R34A  C2016 09 12.25510 23 11 11.59 -16 09 51.2          19.3 VqER154G96
     K16R34A KC2016 09 12.30373 23 10 44.44 -16 07 18.1          18.1 RoER154291
     K16R34A KC2016 09 12.30575 23 10 43.33 -16 07 11.7          18.5 RoER154291
     K16R34A KC2016 09 12.30697 23 10 42.63 -16 07 07.7          18.4 RoER154291
     K16R34A  C2016 09 12.94881 23 05 35.11 -15 34 59.1                qER154246
     K16R34A  C2016 09 12.94921 23 05 34.83 -15 34 59.8                qER154246
     K16R34A  C2016 09 12.94998 23 05 34.59 -15 34 59.8                qER154246
 
Observer details:
246 Klet Observatory-KLENOT.  Observers M. Tichy, J. Ticha.  Measurer M. Tichy.
    1.06-m KLENOT Telescope + CCD.
291 LPL/Spacewatch II.  Observer R. S. McMillan.  1.8-m f/2.7 reflector + CCD.
G96 Mt. Lemmon Survey.  Observers A. R. Gibbs, R. A. Kowalski.  Measurers
    E. J. Christensen, D. C. Fuls, A. R. Gibbs, A. D. Grauer, J. A. Johnson,
    R. A. Kowalski, S. M. Larson, G. J. Leonard, R. G. Matheny, R. L. Seaman,
    F. C. Shelly.  1.5-m reflector + 10K CCD.
H21 Astronomical Research Observatory, Westfield.  Observer R. Holmes.
    Measurers S. Foglia, L. Buzzi, T. Linder, R. Holmes.  0.61-m f/4.5
    astrograph + CCD.
 
Orbital elements:
2016 RA34                                                Earth MOID = 0.0211 AU
Epoch 2016 July 31.0 TT = JDT 2457600.5                 MPC
M  52.70273              (2000.0)            P               Q
n   1.07711367     Peri.  220.06908     -0.78036373     +0.62532409
a   0.9425297      Node   358.63427     -0.55649235     -0.69555120
e   0.3087689      Incl.    3.59131     -0.28521695     -0.35380547
P   0.92           H   24.6           G   0.15           U   9
Residuals in seconds of arc
160911 G96  0.1+  0.4+    160911 291  0.0   0.1+    160912 H21  0.1-  0.6-
160911 G96  0.1-  0.0     160911 291  0.3+  0.2+    160912 G96  0.0   0.5-
160911 G96  0.2-  0.1+    160911 291  0.2-  0.3+    160912 G96  0.1+  0.2-
160911 G96  0.6+  0.4+    160911 246  0.7+  1.6-    160912 G96  0.0   0.4-
160911 G96  0.0   0.4+    160911 246  0.2+  1.0-    160912 G96  0.4+  0.2-
160911 G96  0.1+  0.3+    160911 246  0.4-  0.0     160912 291  0.4-  0.5-
160911 G96  0.2+  0.3+    160911 246  0.3+  0.3-    160912 291  0.1-  0.5-
160911 G96  0.1-  0.0     160911 246  0.6+  0.6-    160912 291  0.4-  0.3-
160911 G96  0.1+  0.4+    160911 246 (3.6-  1.3+)   160912 246 (0.7+  3.5+)
160911 G96  0.6+  0.1+    160912 H21  0.1-  0.7-    160912 246  0.5-  1.6+
160911 G96  0.3+  0.1-    160912 H21  0.3+  0.6-    160912 246  1.6+  0.7-

Ephemeris:
2016 RA34                a,e,i = 0.94, 0.31, 4                   q = 0.6515
Date    TT    R. A. (2000) Decl.     Delta      r     Elong.  Phase     V
2016 08 15    08 34 56.3 -02 22 33   0.09620 0.9249    22.8   154.9    28.8
...
2016 08 30    05 33 47.8 -21 38 23   0.03139 1.0046    79.7    98.5    20.6
...
2016 09 07    00 25 41.8 -22 28 17   0.03927 1.0432   154.2    24.9    18.8
...
2016 09 13    23 05 12.4 -15 30 35   0.06548 1.0701   167.3    11.9    19.5
2016 09 14    22 58 14.2 -14 45 03   0.07039 1.0744   166.5    12.7    19.7
2016 09 15    22 52 14.9 -14 04 25   0.07539 1.0787   165.2    13.7    19.9
...
2016 09 21    22 29 28.5 -11 11 07   0.1070  1.1030   156.7    21.1    21.0
...
2016 09 29    22 16 58.6 -08 58 13   0.1524  1.1324   146.8    29.0    22.1
...
2016 10 14    22 15 30.7 -06 26 22   0.2459  1.1775   132.5    38.7    23.5

A. U. Tomatic                (C) Copyright 2016 MPC           M.P.E.C. 2016-R154




More information about the Iaude mailing list